Regional Weather Roundup
Issued by NWS

Home | Current Version | Previous Version | Graphics & Text | Print | Product List | Glossary On
Versions: 1 2 3 4 5 6 7 8 9 10 11 12 13 14 15 16 17 18 19 20 21 22 23 24 25 26 27 28 29 30 31 32 33 34 35 36 37 38 39 40 41 42 43 44 45 46 47 48 49 50
000
ASUS45 KSLC 110610
RWRUT

UTAH REGIONAL WEATHER ROUNDUP
NATIONAL WEATHER SERVICE SALT LAKE CITY UT
1100 PM MST WED FEB 10 2016

UTZ001>011-023>025-110700-

NORTHERN UTAH

CITY           SKY/WX    TMP DP  RH WIND       PRES   REMARKS
BRIGHAM CITY   CLOUDY    27  26  94 CALM      30.49R VSB 1/2
HILL AFB       FOG       28  26  94 CALM      30.45R VSB 1/4
LOGAN          FOG       23  22  96 E6        30.47R VSB 1/4 WCI  16
OGDEN          FOG       27  27 100 NW7       30.45R VSB 1/4 WCI  19
PROVO AIRPORT    N/A     19  18  93 CALM      30.45R VSB<1/4
SALT LAKE CITY CLOUDY    30  27  88 CALM      30.45S FOG
VERNAL         CLOUDY    14  11  87 CALM      30.41R FOG
WENDOVER       CLOUDY    30  27  86 CALM      30.46S
HEBER CITY     PTCLDY    12   9  85 CALM      30.42R
WEST JORDAN    CLOUDY    28  28 100 CALM      30.45R

$$

UTZ012>022-026-027-110700-

SOUTHERN/CENTRAL UTAH

CITY           SKY/WX    TMP DP  RH WIND       PRES   REMARKS
BLANDING       PTCLDY    31  24  74 NE10      30.44R WCI  22
BRYCE CANYON   PTCLDY    19   8  62 CALM      30.44R
CEDAR CITY     PTCLDY    23  20  88 E6        30.39R WCI  16
DELTA          CLOUDY     9   7  91 CALM      30.46R VSB 1/4
HANKSVILLE     MOCLDY    32  30  93 CALM      30.42R
MILFORD        MOCLDY     8   5  87 S3        30.43R FOG
MOAB/CYNLANDS  PTCLDY    27  24  89 SW5       30.38S WCI  22
PRICE          PTCLDY    25  18  74 E6        30.36S WCI  18
ST GEORGE      PTCLDY    46  27  46 S3        30.32R
KANAB          CLEAR     34  30  86 NE7       30.39R WCI  28

$$

REGIONAL REPORTS     COLORADO/ARIZONA

CITY           SKY/WX    TMP DP  RH WIND       PRES   REMARKS
CRAIG, CO      CLOUDY     2  -2  83 CALM      30.39R
GRAND JUNCTION CLOUDY    26  23  88 E5        30.41R WCI  20
RIFLE          CLOUDY    22  15  75 SW3       30.42R
MONTROSE       CLOUDY    27  20  75 S13       30.44R WCI  16
CORTEZ         CLOUDY    23  18  81 E6        30.37R WCI  16
PAGE, AZ       PTCLDY    39  28  64 CALM      30.36R
GRAND CANYON   PTCLDY    25  17  72 CALM      30.39F
KINGMAN        CLEAR     42  50 100 SE5       30.26S
FLAGSTAFF      PTCLDY    25  19  78 CALM      30.40S

$$

REGIONAL REPORTS    NEVADA/IDAHO/WYOMING

CITY           SKY/WX    TMP DP  RH WIND       PRES   REMARKS
LAS VEGAS, NV  CLEAR     55  27  34 SW3       30.21R
ELY            MOCLDY    20  12  71 S15       30.42R WCI   6
ELKO           CLOUDY    19  14  81 E5        30.44S WCI  12
POCATELLO, ID  CLOUDY    21  19  92 CALM      30.41S
EVANSTON, WY   CLOUDY    29  15  56 S8        30.38S WCI  21
ROCK SPRINGS   CLOUDY    34  18  52 W16       30.33R WCI  24

$$



USA.gov is the U.S. government's official web portal to all federal, state and local government web resources and services.